Time,TemperatureF,DewpointF,PressureIn,WindDirection,WindDirectionDegrees,WindSpeedMPH,WindSpeedGustMPH,Humidity,HourlyPrecipIn,Conditions,Clouds,dailyrainin,SoftwareType,DateUTC
2013-06-21 00:02:00,78.8,65.2,28.85,ESE,123,0.0,0.0,63,0.00,,FEW150,0.00,VWS V14.01,2013-06-21 05:02:00,
2013-06-21 00:07:00,78.8,65.2,28.85,ENE,72,0.0,0.0,63,0.00,,FEW150,0.00,VWS V14.01,2013-06-21 05:07:00,
2013-06-21 00:12:00,78.6,65.4,28.85,SE,138,0.0,0.0,64,0.00,,FEW150,0.00,VWS V14.01,2013-06-21 05:12:00,
2013-06-21 00:17:00,78.4,65.3,28.88,ESE,112,0.0,0.0,64,0.00,,FEW150,0.00,VWS V14.01,2013-06-21 05:17:00,
2013-06-21 00:22:00,78.4,65.3,28.88,ESE,121,0.0,0.0,64,0.00,,FEW150,0.00,VWS V14.01,2013-06-21 05:22:00,
2013-06-21 00:28:00,78.4,65.7,28.88,ESE,112,3.1,3.1,65,0.00,,FEW150,0.00,VWS V14.01,2013-06-21 05:28:00,
2013-06-21 00:33:00,78.3,65.5,28.85,SE,135,0.0,0.0,65,0.00,,FEW150,0.00,VWS V14.01,2013-06-21 05:33:00,
2013-06-21 00:38:00,78.3,65.5,28.85,SE,130,0.0,0.0,65,0.00,,FEW150,0.00,VWS V14.01,2013-06-21 05:38:00,
2013-06-21 00:43:00,78.3,65.5,28.85,SE,131,0.0,0.0,65,0.00,,FEW150,0.00,VWS V14.01,2013-06-21 05:43:00,
2013-06-21 00:48:00,78.1,65.4,28.85,ESE,103,0.0,2.2,65,0.00,,FEW150,0.00,VWS V14.01,2013-06-21 05:48:00,
2013-06-21 00:53:00,78.1,65.4,28.85,South,190,0.0,0.0,65,0.00,,FEW150,0.00,VWS V14.01,2013-06-21 05:53:00,
2013-06-21 00:58:00,78.1,65.4,28.85,East,85,0.0,0.0,65,0.00,,FEW150,0.00,VWS V14.01,2013-06-21 05:58:00,
2013-06-21 01:03:00,77.9,65.2,28.85,ESE,112,0.0,0.0,65,0.00,,FEW150,0.00,VWS V14.01,2013-06-21 06:03:00,
2013-06-21 01:08:00,77.9,65.6,28.85,ESE,123,0.0,0.0,66,0.00,,FEW150,0.00,VWS V14.01,2013-06-21 06:08:00,
2013-06-21 01:13:00,77.9,65.6,28.85,ESE,108,0.0,0.0,66,0.00,,FEW150,0.00,VWS V14.01,2013-06-21 06:13:00,
2013-06-21 01:18:00,77.9,65.6,28.85,SE,127,0.0,2.2,66,0.00,,FEW150,0.00,VWS V14.01,2013-06-21 06:18:00,
2013-06-21 01:23:00,77.7,65.5,28.85,ESE,122,0.0,0.0,66,0.00,,FEW150,0.00,VWS V14.01,2013-06-21 06:23:00,
2013-06-21 01:28:00,77.7,65.5,28.85,ESE,109,0.0,0.0,66,0.00,,FEW150,0.00,VWS V14.01,2013-06-21 06:28:00,
2013-06-21 01:33:00,77.7,65.5,28.85,ESE,107,0.0,2.2,66,0.00,,FEW150,0.00,VWS V14.01,2013-06-21 06:33:00,
2013-06-21 01:38:00,77.7,65.5,28.85,SSE,161,2.2,5.4,66,0.00,,FEW150,0.00,VWS V14.01,2013-06-21 06:38:00,
2013-06-21 01:43:00,77.7,65.5,28.85,SSE,154,0.0,3.1,66,0.00,,FEW150,0.00,VWS V14.01,2013-06-21 06:43:00,
2013-06-21 01:49:00,77.7,65.9,28.85,ESE,114,0.0,2.7,67,0.00,,FEW150,0.00,VWS V14.01,2013-06-21 06:49:00,
2013-06-21 01:54:00,77.5,65.7,28.85,ESE,121,0.0,3.1,67,0.00,,FEW150,0.00,VWS V14.01,2013-06-21 06:54:00,
2013-06-21 01:59:00,77.5,65.7,28.85,East,81,2.2,4.9,67,0.00,,FEW150,0.00,VWS V14.01,2013-06-21 06:59:00,
2013-06-21 02:04:00,77.5,65.7,28.82,ESE,102,0.0,4.0,67,0.00,,FEW080,0.00,VWS V14.01,2013-06-21 07:04:00,
2013-06-21 02:09:00,77.4,65.6,28.82,SE,137,0.0,3.1,67,0.00,,FEW080,0.00,VWS V14.01,2013-06-21 07:09:00,
2013-06-21 02:14:00,77.4,65.6,28.82,South,178,0.0,2.2,67,0.00,,FEW080,0.00,VWS V14.01,2013-06-21 07:14:00,
2013-06-21 02:19:00,77.5,65.7,28.82,South,170,0.0,4.9,67,0.00,,FEW080,0.00,VWS V14.01,2013-06-21 07:19:00,
2013-06-21 02:24:00,77.5,65.7,28.82,SSE,153,0.0,0.0,67,0.00,,FEW080,0.00,VWS V14.01,2013-06-21 07:24:00,
2013-06-21 02:29:00,77.5,65.7,28.82,SE,138,0.0,0.0,67,0.00,,FEW080,0.00,VWS V14.01,2013-06-21 07:29:00,
2013-06-21 02:34:00,77.4,65.6,28.82,South,176,0.0,3.6,67,0.00,,FEW080,0.00,VWS V14.01,2013-06-21 07:34:00,
2013-06-21 02:39:00,77.4,65.6,28.82,South,187,0.0,0.0,67,0.00,,FEW080,0.00,VWS V14.01,2013-06-21 07:39:00,
2013-06-21 02:44:00,77.4,66.0,28.82,SSE,165,0.0,3.1,68,0.00,,FEW080,0.00,VWS V14.01,2013-06-21 07:44:00,
2013-06-21 02:49:00,77.4,66.0,28.82,SSE,156,0.0,0.0,68,0.00,,FEW080,0.00,VWS V14.01,2013-06-21 07:49:00,
2013-06-21 02:54:00,77.4,66.0,28.82,SE,146,0.0,0.0,68,0.00,,FEW080,0.00,VWS V14.01,2013-06-21 07:54:00,
2013-06-21 02:59:00,77.2,65.8,28.82,South,181,0.0,0.0,68,0.00,,FEW080,0.00,VWS V14.01,2013-06-21 07:59:00,
2013-06-21 03:04:00,77.2,65.8,28.82,South,176,0.0,0.0,68,0.00,,FEW080,0.00,VWS V14.01,2013-06-21 08:04:00,
2013-06-21 03:10:00,77.2,65.8,28.82,ESE,113,0.0,3.1,68,0.00,,FEW080,0.00,VWS V14.01,2013-06-21 08:10:00,
2013-06-21 03:15:00,77.2,65.8,28.82,ESE,120,0.0,5.4,68,0.00,,FEW080,0.00,VWS V14.01,2013-06-21 08:15:00,
2013-06-21 03:20:00,77.0,65.6,28.82,SSE,154,0.0,0.0,68,0.00,,FEW080,0.00,VWS V14.01,2013-06-21 08:20:00,
2013-06-21 03:25:00,77.0,66.1,28.82,SE,139,0.0,0.0,69,0.00,,FEW080,0.00,VWS V14.01,2013-06-21 08:25:00,
2013-06-21 03:30:00,77.0,66.1,28.82,South,172,3.6,3.6,69,0.00,,FEW080,0.00,VWS V14.01,2013-06-21 08:30:00,
2013-06-21 03:35:00,77.0,66.1,28.79,South,181,0.0,0.0,69,0.00,,FEW080,0.00,VWS V14.01,2013-06-21 08:35:00,
2013-06-21 03:40:00,77.0,66.1,28.79,South,184,0.0,2.2,69,0.00,,FEW080,0.00,VWS V14.01,2013-06-21 08:40:00,
2013-06-21 03:45:00,77.0,66.1,28.79,SSE,163,0.0,0.0,69,0.00,,FEW080,0.00,VWS V14.01,2013-06-21 08:45:00,
2013-06-21 03:50:00,77.0,66.1,28.79,South,180,0.0,0.0,69,0.00,,FEW080,0.00,VWS V14.01,2013-06-21 08:50:00,
2013-06-21 03:55:00,77.0,66.1,28.79,SE,133,0.0,3.1,69,0.00,,FEW080,0.00,VWS V14.01,2013-06-21 08:55:00,
2013-06-21 04:00:00,77.0,66.1,28.79,South,176,0.0,0.0,69,0.00,,FEW080,0.00,VWS V14.01,2013-06-21 09:00:00,
2013-06-21 04:05:00,77.0,66.5,28.79,South,173,0.0,2.7,70,0.00,,FEW075,0.00,VWS V14.01,2013-06-21 09:05:00,
2013-06-21 04:10:00,77.0,66.5,28.79,SE,134,3.1,3.6,70,0.00,,FEW075,0.00,VWS V14.01,2013-06-21 09:10:00,
2013-06-21 04:15:00,77.0,66.5,28.79,SSE,158,0.0,0.0,70,0.00,,FEW075,0.00,VWS V14.01,2013-06-21 09:15:00,
2013-06-21 04:20:00,77.0,66.5,28.79,South,174,0.0,6.7,70,0.00,,FEW075,0.00,VWS V14.01,2013-06-21 09:20:00,
2013-06-21 04:25:00,77.0,66.5,28.79,South,171,4.0,4.0,70,0.00,,FEW075,0.00,VWS V14.01,2013-06-21 09:25:00,
2013-06-21 04:30:00,77.0,66.5,28.79,SE,142,0.0,3.6,70,0.00,,FEW075,0.00,VWS V14.01,2013-06-21 09:30:00,
2013-06-21 04:35:00,77.0,66.5,28.82,SSE,165,0.0,2.2,70,0.00,,FEW075,0.00,VWS V14.01,2013-06-21 09:35:00,
2013-06-21 04:40:00,77.0,66.5,28.82,SSE,167,0.0,0.0,70,0.00,,FEW075,0.00,VWS V14.01,2013-06-21 09:40:00,
2013-06-21 04:46:00,77.0,66.5,28.82,SSE,165,0.0,0.0,70,0.00,,FEW075,0.00,VWS V14.01,2013-06-21 09:46:00,
2013-06-21 04:51:00,77.0,66.9,28.82,SSE,165,0.0,4.0,71,0.00,,FEW075,0.00,VWS V14.01,2013-06-21 09:51:00,
2013-06-21 04:56:00,77.0,66.9,28.82,SSE,153,0.0,0.0,71,0.00,,FEW075,0.00,VWS V14.01,2013-06-21 09:56:00,
2013-06-21 05:01:00,77.0,66.9,28.85,South,182,0.0,0.0,71,0.00,,FEW075,0.00,VWS V14.01,2013-06-21 10:01:00,
2013-06-21 05:06:00,76.8,67.1,28.85,East,91,0.0,0.0,72,0.00,,FEW075,0.00,VWS V14.01,2013-06-21 10:06:00,
2013-06-21 05:11:00,76.8,67.1,28.85,SE,145,0.0,0.0,72,0.00,,FEW075,0.00,VWS V14.01,2013-06-21 10:11:00,
2013-06-21 05:16:00,76.8,67.1,28.82,SE,138,0.0,0.0,72,0.00,,FEW075,0.00,VWS V14.01,2013-06-21 10:16:00,
2013-06-21 05:21:00,76.8,67.1,28.82,SSW,196,0.0,0.0,72,0.00,,FEW075,0.00,VWS V14.01,2013-06-21 10:21:00,
2013-06-21 05:26:00,76.8,67.1,28.82,East,101,0.0,2.2,72,0.00,,FEW075,0.00,VWS V14.01,2013-06-21 10:26:00,
2013-06-21 05:32:00,76.6,66.9,28.82,SSE,158,0.0,0.0,72,0.00,,FEW075,0.00,VWS V14.01,2013-06-21 10:32:00,
2013-06-21 05:37:00,76.6,66.9,28.82,South,178,0.0,0.0,72,0.00,,FEW075,0.00,VWS V14.01,2013-06-21 10:37:00,
2013-06-21 05:42:00,76.5,67.2,28.82,ENE,78,0.0,0.0,73,0.00,,FEW075,0.00,VWS V14.01,2013-06-21 10:42:00,
2013-06-21 05:47:00,76.5,67.2,28.82,SSE,167,0.0,0.0,73,0.00,,FEW075,0.00,VWS V14.01,2013-06-21 10:47:00,
2013-06-21 05:52:00,76.5,67.2,28.82,SE,134,0.0,2.2,73,0.00,,FEW075,0.00,VWS V14.01,2013-06-21 10:52:00,
2013-06-21 05:57:00,76.5,67.6,28.82,South,169,0.0,0.0,74,0.00,,FEW075,0.00,VWS V14.01,2013-06-21 10:57:00,
2013-06-21 06:02:00,76.5,67.6,28.82,SSW,194,0.0,2.2,74,0.00,,BKN250,0.00,VWS V14.01,2013-06-21 11:02:00,
2013-06-21 06:07:00,76.5,67.6,28.82,SSE,156,0.0,2.7,74,0.00,,BKN250,0.00,VWS V14.01,2013-06-21 11:07:00,
2013-06-21 06:13:00,76.5,67.6,28.82,SSE,157,0.0,4.9,74,0.00,,BKN250,0.00,VWS V14.01,2013-06-21 11:13:00,
2013-06-21 06:18:00,76.5,67.6,28.82,South,172,3.1,3.1,74,0.00,,BKN250,0.00,VWS V14.01,2013-06-21 11:18:00,
2013-06-21 06:23:00,76.5,67.6,28.82,South,169,0.0,4.5,74,0.00,,BKN250,0.00,VWS V14.01,2013-06-21 11:23:00,
2013-06-21 06:28:00,76.5,67.9,28.82,SE,130,5.4,5.4,75,0.00,,BKN250,0.00,VWS V14.01,2013-06-21 11:28:00,
2013-06-21 06:33:00,76.5,67.9,28.82,South,178,4.0,4.0,75,0.00,,BKN250,0.00,VWS V14.01,2013-06-21 11:33:00,
2013-06-21 06:38:00,76.8,68.3,28.82,SSE,154,2.7,3.6,75,0.00,,BKN250,0.00,VWS V14.01,2013-06-21 11:38:00,
2013-06-21 06:43:00,76.8,68.3,28.82,SSE,155,7.6,7.6,75,0.00,,BKN250,0.00,VWS V14.01,2013-06-21 11:43:00,
2013-06-21 06:48:00,76.8,68.3,28.82,South,180,4.9,4.9,75,0.00,,BKN250,0.00,VWS V14.01,2013-06-21 11:48:00,
2013-06-21 06:53:00,76.8,68.3,28.82,South,183,0.0,0.0,75,0.00,,BKN250,0.00,VWS V14.01,2013-06-21 11:53:00,
2013-06-21 06:58:00,77.0,68.5,28.82,SE,129,0.0,0.0,75,0.00,,BKN250,0.00,VWS V14.01,2013-06-21 11:58:00,
2013-06-21 07:03:00,77.0,68.5,28.82,SE,135,2.7,2.7,75,0.00,,BKN250,0.00,VWS V14.01,2013-06-21 12:03:00,
2013-06-21 07:08:00,77.0,68.5,28.82,South,184,3.6,3.6,75,0.00,,BKN250,0.00,VWS V14.01,2013-06-21 12:08:00,
2013-06-21 07:13:00,77.0,68.5,28.82,South,180,0.0,0.0,75,0.00,,BKN250,0.00,VWS V14.01,2013-06-21 12:13:00,
2013-06-21 07:18:00,77.0,68.5,28.82,South,182,4.0,4.0,75,0.00,,BKN250,0.00,VWS V14.01,2013-06-21 12:18:00,
2013-06-21 07:23:00,77.0,68.5,28.82,SSE,159,3.1,3.6,75,0.00,,BKN250,0.00,VWS V14.01,2013-06-21 12:23:00,
2013-06-21 07:28:00,77.2,68.7,28.82,SE,146,0.0,4.5,75,0.00,,BKN250,0.00,VWS V14.01,2013-06-21 12:28:00,
2013-06-21 07:34:00,77.2,68.7,28.82,South,184,2.7,2.7,75,0.00,,BKN250,0.00,VWS V14.01,2013-06-21 12:34:00,
2013-06-21 07:39:00,77.2,69.0,28.82,SSE,160,6.3,6.3,76,0.00,,BKN250,0.00,VWS V14.01,2013-06-21 12:39:00,
2013-06-21 07:44:00,77.4,69.2,28.82,SSW,193,5.4,5.4,76,0.00,,BKN250,0.00,VWS V14.01,2013-06-21 12:44:00,
2013-06-21 07:49:00,77.5,69.4,28.82,SE,142,4.0,4.0,76,0.00,,BKN250,0.00,VWS V14.01,2013-06-21 12:49:00,
2013-06-21 07:54:00,77.5,69.4,28.82,SSE,157,0.0,4.0,76,0.00,,BKN250,0.00,VWS V14.01,2013-06-21 12:54:00,
2013-06-21 07:59:00,77.7,69.2,28.82,South,191,0.0,3.1,75,0.00,,BKN250,0.00,VWS V14.01,2013-06-21 12:59:00,
2013-06-21 08:04:00,77.7,69.2,28.82,South,175,0.0,3.6,75,0.00,,BKN250,0.00,VWS V14.01,2013-06-21 13:04:00,
2013-06-21 08:09:00,77.9,69.3,28.82,South,180,3.1,3.1,75,0.00,,BKN250,0.00,VWS V14.01,2013-06-21 13:09:00,
2013-06-21 08:14:00,78.1,69.5,28.82,SSW,201,2.7,4.9,75,0.00,,BKN250,0.00,VWS V14.01,2013-06-21 13:14:00,
2013-06-21 08:19:00,78.1,69.5,28.79,SSW,209,2.7,3.6,75,0.00,,BKN250,0.00,VWS V14.01,2013-06-21 13:19:00,
2013-06-21 08:24:00,78.4,69.9,28.79,SSE,161,0.0,4.0,75,0.00,,BKN250,0.00,VWS V14.01,2013-06-21 13:24:00,
2013-06-21 08:29:00,78.6,70.0,28.79,South,169,0.0,0.0,75,0.00,,BKN250,0.00,VWS V14.01,2013-06-21 13:29:00,
2013-06-21 08:34:00,78.8,70.2,28.79,South,176,2.7,2.7,75,0.00,,BKN250,0.00,VWS V14.01,2013-06-21 13:34:00,
2013-06-21 08:39:00,79.0,70.0,28.79,South,190,0.0,0.0,74,0.00,,BKN250,0.00,VWS V14.01,2013-06-21 13:39:00,
2013-06-21 08:44:00,79.3,70.3,28.79,SE,138,3.1,5.8,74,0.00,,BKN250,0.00,VWS V14.01,2013-06-21 13:44:00,
2013-06-21 08:49:00,79.7,70.7,28.79,South,185,3.1,3.1,74,0.00,,BKN250,0.00,VWS V14.01,2013-06-21 13:49:00,
2013-06-21 08:54:00,79.9,70.5,28.79,South,185,2.7,4.0,73,0.00,,BKN250,0.00,VWS V14.01,2013-06-21 13:54:00,
2013-06-21 08:59:00,80.1,70.2,28.79,South,171,5.4,7.6,72,0.00,,BKN250,0.00,VWS V14.01,2013-06-21 13:59:00,
2013-06-21 09:05:00,80.4,70.6,28.82,South,183,3.1,4.9,72,0.00,,BKN250,0.00,VWS V14.01,2013-06-21 14:05:00,
2013-06-21 09:10:00,80.6,70.3,28.82,South,169,0.0,5.4,71,0.00,,BKN250,0.00,VWS V14.01,2013-06-21 14:10:00,
2013-06-21 09:15:00,80.8,70.5,28.82,SSE,164,5.4,5.4,71,0.00,,BKN250,0.00,VWS V14.01,2013-06-21 14:15:00,
2013-06-21 09:20:00,81.1,70.8,28.82,SSE,167,5.8,5.8,71,0.00,,BKN250,0.00,VWS V14.01,2013-06-21 14:20:00,
2013-06-21 09:25:00,81.1,70.4,28.82,South,187,4.9,4.9,70,0.00,,BKN250,0.00,VWS V14.01,2013-06-21 14:25:00,
2013-06-21 09:30:00,81.3,70.2,28.82,South,188,6.3,6.3,69,0.00,,BKN250,0.00,VWS V14.01,2013-06-21 14:30:00,
2013-06-21 09:35:00,81.5,70.4,28.82,SSW,209,5.4,5.4,69,0.00,,BKN250,0.00,VWS V14.01,2013-06-21 14:35:00,
2013-06-21 09:40:00,81.9,70.7,28.82,South,191,3.1,6.3,69,0.00,,BKN250,0.00,VWS V14.01,2013-06-21 14:40:00,
2013-06-21 09:45:00,82.0,70.9,28.82,South,181,7.2,7.2,69,0.00,,BKN250,0.00,VWS V14.01,2013-06-21 14:45:00,
2013-06-21 09:50:00,82.2,71.0,28.82,SSE,159,4.0,4.9,69,0.00,,BKN250,0.00,VWS V14.01,2013-06-21 14:50:00,
2013-06-21 09:55:00,82.4,71.2,28.82,SSE,150,2.2,2.2,69,0.00,,BKN250,0.00,VWS V14.01,2013-06-21 14:55:00,
2013-06-21 10:00:00,82.6,71.0,28.82,SSW,211,0.0,2.7,68,0.00,,OVC260,0.00,VWS V14.01,2013-06-21 15:00:00,
2013-06-21 10:06:00,82.4,70.8,28.85,South,183,0.0,0.0,68,0.00,,OVC260,0.00,VWS V14.01,2013-06-21 15:06:00,
2013-06-21 10:11:00,82.6,71.0,28.85,SSE,155,0.0,0.0,68,0.00,,OVC260,0.00,VWS V14.01,2013-06-21 15:11:00,
2013-06-21 10:16:00,82.6,71.0,28.85,South,172,0.0,0.0,68,0.00,,OVC260,0.00,VWS V14.01,2013-06-21 15:16:00,
2013-06-21 10:21:00,82.8,71.6,28.85,SSW,192,0.0,0.0,69,0.00,,OVC260,0.00,VWS V14.01,2013-06-21 15:21:00,
2013-06-21 10:26:00,82.8,71.1,28.85,SSE,154,0.0,0.0,68,0.00,,OVC260,0.00,VWS V14.01,2013-06-21 15:26:00,
2013-06-21 10:31:00,82.6,71.0,28.88,South,185,0.0,0.0,68,0.00,,OVC260,0.00,VWS V14.01,2013-06-21 15:31:00,
2013-06-21 10:36:00,82.6,71.0,28.88,South,186,0.0,0.0,68,0.00,,OVC260,0.00,VWS V14.01,2013-06-21 15:36:00,
2013-06-21 10:41:00,82.4,70.8,28.88,SSE,167,0.0,0.0,68,0.00,,OVC260,0.00,VWS V14.01,2013-06-21 15:41:00,
2013-06-21 10:46:00,82.4,70.8,28.88,SSE,167,0.0,0.0,68,0.00,,OVC260,0.00,VWS V14.01,2013-06-21 15:46:00,
2013-06-21 10:51:00,82.4,71.2,28.88,SSE,167,0.0,0.0,69,0.00,,OVC260,0.00,VWS V14.01,2013-06-21 15:51:00,
2013-06-21 10:56:00,82.2,70.6,28.88,SSE,167,0.0,0.0,68,0.00,,OVC260,0.00,VWS V14.01,2013-06-21 15:56:00,
2013-06-21 11:01:00,82.0,71.3,28.88,SSE,167,0.0,0.0,70,0.00,,OVC260,0.00,VWS V14.01,2013-06-21 16:01:00,
2013-06-21 11:06:00,82.0,71.3,28.88,NE,35,0.0,0.0,70,0.00,,OVC260,0.00,VWS V14.01,2013-06-21 16:06:00,
2013-06-21 11:11:00,82.2,71.5,28.88,NE,47,0.0,0.0,70,0.00,,OVC260,0.00,VWS V14.01,2013-06-21 16:11:00,
2013-06-21 11:16:00,82.2,71.5,28.88,North,3,0.0,0.0,70,0.00,,OVC260,0.00,VWS V14.01,2013-06-21 16:16:00,
2013-06-21 11:21:00,82.6,71.4,28.88,North,11,0.0,0.0,69,0.00,,OVC260,0.00,VWS V14.01,2013-06-21 16:21:00,
2013-06-21 11:26:00,82.9,71.3,28.88,ENE,67,0.0,0.0,68,0.00,,OVC260,0.00,VWS V14.01,2013-06-21 16:26:00,
2013-06-21 11:31:00,82.9,71.3,28.88,NNE,28,0.0,0.0,68,0.00,,OVC260,0.00,VWS V14.01,2013-06-21 16:31:00,
2013-06-21 11:36:00,82.8,71.1,28.88,NE,48,0.0,0.0,68,0.00,,OVC260,0.00,VWS V14.01,2013-06-21 16:36:00,
2013-06-21 11:42:00,82.8,71.1,28.88,ESE,105,0.0,0.0,68,0.00,,OVC260,0.00,VWS V14.01,2013-06-21 16:42:00,
2013-06-21 11:47:00,82.9,70.9,28.88,ENE,76,0.0,0.0,67,0.00,,OVC260,0.00,VWS V14.01,2013-06-21 16:47:00,
2013-06-21 11:52:00,83.1,71.5,28.88,ENE,73,0.0,0.0,68,0.00,,OVC260,0.00,VWS V14.01,2013-06-21 16:52:00,
2013-06-21 11:57:00,83.5,71.8,28.88,NE,55,0.0,0.0,68,0.00,,OVC260,0.00,VWS V14.01,2013-06-21 16:57:00,
2013-06-21 12:02:00,83.8,71.7,28.88,East,97,0.0,0.0,67,0.00,,,0.00,VWS V14.01,2013-06-21 17:02:00,
2013-06-21 12:07:00,83.7,71.6,28.88,ENE,71,0.0,0.0,67,0.00,,,0.00,VWS V14.01,2013-06-21 17:07:00,
2013-06-21 12:12:00,83.5,71.4,28.88,ENE,76,0.0,5.8,67,0.00,,,0.00,VWS V14.01,2013-06-21 17:12:00,
2013-06-21 12:18:00,83.1,71.0,28.85,ESE,116,0.0,2.2,67,0.00,,,0.00,VWS V14.01,2013-06-21 17:18:00,
2013-06-21 12:23:00,83.3,71.6,28.85,East,83,0.0,4.0,68,0.00,,,0.00,VWS V14.01,2013-06-21 17:23:00,
2013-06-21 12:28:00,83.7,72.0,28.85,NE,46,2.7,3.1,68,0.00,,,0.00,VWS V14.01,2013-06-21 17:28:00,
2013-06-21 12:33:00,84.2,72.5,28.85,East,90,4.9,4.9,68,0.00,,,0.00,VWS V14.01,2013-06-21 17:33:00,
2013-06-21 12:38:00,84.6,72.4,28.85,East,90,4.0,8.3,67,0.00,,,0.00,VWS V14.01,2013-06-21 17:38:00,
2013-06-21 12:43:00,84.6,72.0,28.85,ENE,76,3.6,3.6,66,0.00,,,0.00,VWS V14.01,2013-06-21 17:43:00,
2013-06-21 12:46:00,84.2,70.7,28.85,East,80,2.7,3.6,64,0.00,,,0.00,VWS V14.01,2013-06-21 17:46:00,
2013-06-21 12:47:00,84.2,70.7,28.88,ENE,70,2.7,4.0,64,0.00,,,0.00,VWS V14.01,2013-06-21 17:47:00,
2013-06-21 12:52:00,83.5,69.6,28.88,ESE,114,0.0,3.1,63,0.00,,,0.00,VWS V14.01,2013-06-21 17:52:00,
2013-06-21 12:57:00,83.3,69.9,28.88,East,82,0.0,0.0,64,0.00,,,0.00,VWS V14.01,2013-06-21 17:57:00,
2013-06-21 13:02:00,83.3,69.9,28.88,ENE,62,0.0,2.2,64,0.00,,,0.00,VWS V14.01,2013-06-21 18:02:00,
2013-06-21 13:07:00,83.3,69.9,28.88,East,81,0.0,0.0,64,0.00,,,0.00,VWS V14.01,2013-06-21 18:07:00,
2013-06-21 13:12:00,83.3,70.3,28.88,East,92,0.0,2.2,65,0.00,,,0.00,VWS V14.01,2013-06-21 18:12:00,
2013-06-21 13:18:00,82.9,69.5,28.88,ENE,69,4.9,5.8,64,0.00,,,0.00,VWS V14.01,2013-06-21 18:18:00,
2013-06-21 13:23:00,82.6,69.2,28.88,East,90,2.7,6.3,64,0.00,,,0.00,VWS V14.01,2013-06-21 18:23:00,
2013-06-21 13:24:00,82.6,68.7,28.88,East,100,5.4,5.4,63,0.00,,,0.00,VWS V14.01,2013-06-21 18:24:00,
2013-06-21 13:25:00,82.6,69.2,28.88,East,81,0.0,2.7,64,0.00,,,0.00,VWS V14.01,2013-06-21 18:25:00,
2013-06-21 13:30:00,82.4,69.0,28.88,NE,51,0.0,2.7,64,0.00,,,0.00,VWS V14.01,2013-06-21 18:30:00,
2013-06-21 13:35:00,82.2,69.3,28.88,ENE,76,0.0,2.7,65,0.00,,,0.00,VWS V14.01,2013-06-21 18:35:00,
2013-06-21 13:41:00,82.0,68.7,28.88,ESE,103,0.0,4.0,64,0.00,,,0.00,VWS V14.01,2013-06-21 18:41:00,
2013-06-21 13:45:00,81.9,68.5,28.88,ENE,64,0.0,0.0,64,0.00,,,0.00,VWS V14.01,2013-06-21 18:45:00,
2013-06-21 13:46:00,81.9,68.9,28.88,ENE,68,4.9,4.9,65,0.00,,,0.00,VWS V14.01,2013-06-21 18:46:00,
2013-06-21 13:47:00,81.9,68.9,28.88,East,96,2.2,2.2,65,0.00,,,0.00,VWS V14.01,2013-06-21 18:47:00,
2013-06-21 13:48:00,81.9,68.9,28.88,ENE,67,0.0,2.2,65,0.00,,,0.00,VWS V14.01,2013-06-21 18:48:00,
2013-06-21 13:53:00,81.7,69.2,28.88,ENE,71,0.0,0.0,66,0.00,,,0.00,VWS V14.01,2013-06-21 18:53:00,
2013-06-21 13:58:00,81.5,69.1,28.88,NE,38,0.0,0.0,66,0.00,,,0.00,VWS V14.01,2013-06-21 18:58:00,
2013-06-21 14:03:00,81.1,68.7,28.88,ENE,68,0.0,0.0,66,0.00,,OVC260,0.00,VWS V14.01,2013-06-21 19:03:00,
2013-06-21 14:08:00,81.0,68.5,28.88,East,85,0.0,0.0,66,0.00,,OVC260,0.00,VWS V14.01,2013-06-21 19:08:00,
2013-06-21 14:13:00,80.6,68.6,28.88,ESE,123,0.0,0.0,67,0.00,,OVC260,0.00,VWS V14.01,2013-06-21 19:13:00,
2013-06-21 14:18:00,80.6,68.6,28.88,East,79,0.0,0.0,67,0.00,,OVC260,0.00,VWS V14.01,2013-06-21 19:18:00,
2013-06-21 14:21:00,80.6,68.6,28.88,ENE,69,0.0,0.0,67,0.00,,OVC260,0.00,VWS V14.01,2013-06-21 19:21:00,
2013-06-21 14:26:00,80.4,68.9,28.88,ENE,63,0.0,0.0,68,0.00,,OVC260,0.00,VWS V14.01,2013-06-21 19:26:00,
2013-06-21 14:31:00,80.4,68.9,28.88,NE,56,0.0,0.0,68,0.00,,OVC260,0.00,VWS V14.01,2013-06-21 19:31:00,
2013-06-21 14:36:00,80.4,68.9,28.88,NE,56,0.0,0.0,68,0.00,,OVC260,0.00,VWS V14.01,2013-06-21 19:36:00,
2013-06-21 14:41:00,80.2,69.2,28.88,ESE,103,0.0,2.7,69,0.00,,OVC260,0.00,VWS V14.01,2013-06-21 19:41:00,
2013-06-21 14:43:00,80.2,69.2,28.88,SE,133,0.0,0.0,69,0.00,,OVC260,0.00,VWS V14.01,2013-06-21 19:43:00,
2013-06-21 14:48:00,80.2,69.6,28.85,NE,55,0.0,2.7,70,0.00,,OVC260,0.00,VWS V14.01,2013-06-21 19:48:00,
2013-06-21 14:53:00,80.1,69.4,28.85,ENE,70,3.1,3.1,70,0.00,,OVC260,0.00,VWS V14.01,2013-06-21 19:53:00,
2013-06-21 14:58:00,79.7,69.1,28.85,East,87,0.0,6.3,70,0.00,,OVC260,0.00,VWS V14.01,2013-06-21 19:58:00,
2013-06-21 15:03:00,79.7,69.1,28.82,ENE,68,0.0,2.2,70,0.00,,OVC260,0.00,VWS V14.01,2013-06-21 20:03:00,
2013-06-21 15:04:00,79.7,69.1,28.82,ENE,57,0.0,0.0,70,0.00,,OVC260,0.00,VWS V14.01,2013-06-21 20:04:00,
2013-06-21 15:09:00,79.7,69.5,28.82,ESE,120,0.0,0.0,71,0.00,,OVC260,0.00,VWS V14.01,2013-06-21 20:09:00,
2013-06-21 15:10:00,79.9,69.6,28.82,ENE,72,0.0,0.0,71,0.00,,OVC260,0.00,VWS V14.01,2013-06-21 20:10:00,
2013-06-21 15:11:00,79.9,69.6,28.82,East,91,0.0,0.0,71,0.00,,OVC260,0.00,VWS V14.01,2013-06-21 20:11:00,
2013-06-21 15:13:00,79.7,69.5,28.82,ESE,109,0.0,0.0,71,0.00,,OVC260,0.00,VWS V14.01,2013-06-21 20:13:00,
2013-06-21 15:18:00,79.7,69.5,28.82,East,96,0.0,3.1,71,0.00,,OVC260,0.00,VWS V14.01,2013-06-21 20:18:00,
2013-06-21 15:23:00,79.9,69.6,28.82,East,92,2.7,2.7,71,0.00,,OVC260,0.00,VWS V14.01,2013-06-21 20:23:00,
2013-06-21 15:28:00,80.1,70.2,28.82,SE,125,0.0,2.7,72,0.00,,OVC260,0.00,VWS V14.01,2013-06-21 20:28:00,
2013-06-21 15:33:00,80.2,70.4,28.79,ESE,116,0.0,2.2,72,0.00,,OVC260,0.00,VWS V14.01,2013-06-21 20:33:00,
2013-06-21 15:39:00,80.6,70.8,28.79,East,95,4.0,4.0,72,0.00,,OVC260,0.00,VWS V14.01,2013-06-21 20:39:00,
2013-06-21 15:44:00,81.0,71.5,28.79,SSE,159,0.0,3.6,73,0.00,,OVC260,0.00,VWS V14.01,2013-06-21 20:44:00,
2013-06-21 15:49:00,81.5,71.6,28.79,East,95,0.0,0.0,72,0.00,,OVC260,0.00,VWS V14.01,2013-06-21 20:49:00,
2013-06-21 15:54:00,82.0,72.5,28.79,ESE,118,0.0,0.0,73,0.00,,OVC260,0.00,VWS V14.01,2013-06-21 20:54:00,
2013-06-21 15:59:00,82.6,73.1,28.79,ESE,110,0.0,0.0,73,0.00,,OVC260,0.00,VWS V14.01,2013-06-21 20:59:00,
2013-06-21 16:04:00,83.3,74.2,28.79,East,101,0.0,0.0,74,0.00,,OVC260,0.00,VWS V14.01,2013-06-21 21:04:00,
2013-06-21 16:09:00,83.8,74.7,28.79,SSE,164,0.0,0.0,74,0.00,,OVC260,0.00,VWS V14.01,2013-06-21 21:09:00,
2013-06-21 16:14:00,84.2,75.0,28.79,SE,145,0.0,2.2,74,0.00,,OVC260,0.00,VWS V14.01,2013-06-21 21:14:00,
2013-06-21 16:19:00,84.7,75.5,28.79,SSE,148,0.0,3.6,74,0.00,,OVC260,0.00,VWS V14.01,2013-06-21 21:19:00,
2013-06-21 16:24:00,85.1,75.5,28.79,South,191,0.0,0.0,73,0.00,,OVC260,0.00,VWS V14.01,2013-06-21 21:24:00,
2013-06-21 16:29:00,85.3,75.2,28.79,SSE,159,2.2,2.2,72,0.00,,OVC260,0.00,VWS V14.01,2013-06-21 21:29:00,
2013-06-21 16:34:00,85.6,74.7,28.79,SSE,154,8.7,8.7,70,0.00,,OVC260,0.00,VWS V14.01,2013-06-21 21:34:00,
2013-06-21 16:39:00,85.8,74.5,28.79,SSE,155,0.0,2.2,69,0.00,,OVC260,0.00,VWS V14.01,2013-06-21 21:39:00,
2013-06-21 16:44:00,86.0,74.2,28.79,SSE,155,5.8,5.8,68,0.00,,OVC260,0.00,VWS V14.01,2013-06-21 21:44:00,
2013-06-21 16:50:00,86.4,74.1,28.79,South,176,5.8,11.0,67,0.00,,OVC260,0.00,VWS V14.01,2013-06-21 21:50:00,
2013-06-21 16:55:00,86.5,73.8,28.79,SE,142,6.3,10.1,66,0.00,,OVC260,0.00,VWS V14.01,2013-06-21 21:55:00,
2013-06-21 17:00:00,86.7,74.0,28.79,SSE,153,2.7,4.0,66,0.00,,OVC260,0.00,VWS V14.01,2013-06-21 22:00:00,
2013-06-21 17:05:00,86.7,74.0,28.79,East,98,2.7,3.6,66,0.00,,OVC260,0.00,VWS V14.01,2013-06-21 22:05:00,
2013-06-21 17:10:00,86.7,73.6,28.79,South,183,5.4,5.4,65,0.00,,OVC260,0.00,VWS V14.01,2013-06-21 22:10:00,
2013-06-21 17:15:00,86.9,73.7,28.79,SE,141,3.6,3.6,65,0.00,,OVC260,0.00,VWS V14.01,2013-06-21 22:15:00,
2013-06-21 17:20:00,86.9,74.2,28.79,SE,138,3.1,3.1,66,0.00,,OVC260,0.00,VWS V14.01,2013-06-21 22:20:00,
2013-06-21 17:25:00,87.1,74.3,28.79,ESE,123,2.7,2.7,66,0.00,,OVC260,0.00,VWS V14.01,2013-06-21 22:25:00,
2013-06-21 17:30:00,87.1,73.9,28.79,SE,133,4.0,4.0,65,0.00,,OVC260,0.00,VWS V14.01,2013-06-21 22:30:00,
2013-06-21 17:35:00,87.1,73.9,28.79,South,174,3.6,8.7,65,0.00,,OVC260,0.00,VWS V14.01,2013-06-21 22:35:00,
2013-06-21 17:40:00,87.1,73.4,28.79,SSE,147,4.9,4.9,64,0.00,,OVC260,0.00,VWS V14.01,2013-06-21 22:40:00,
2013-06-21 17:45:00,87.1,73.9,28.79,SSE,165,0.0,0.0,65,0.00,,OVC260,0.00,VWS V14.01,2013-06-21 22:45:00,
2013-06-21 17:50:00,87.3,74.1,28.79,SSE,162,4.0,5.4,65,0.00,,OVC260,0.00,VWS V14.01,2013-06-21 22:50:00,
2013-06-21 17:55:00,87.3,74.5,28.79,South,182,0.0,0.0,66,0.00,,OVC260,0.00,VWS V14.01,2013-06-21 22:55:00,
2013-06-21 18:00:00,87.3,74.1,28.79,SSE,147,3.6,5.8,65,0.00,,OVC260,0.00,VWS V14.01,2013-06-21 23:00:00,
2013-06-21 18:05:00,87.3,73.6,28.79,SSE,168,3.1,4.9,64,0.00,,BKN300,0.00,VWS V14.01,2013-06-21 23:05:00,
2013-06-21 18:10:00,87.1,73.4,28.79,SSW,198,5.4,5.4,64,0.00,,BKN300,0.00,VWS V14.01,2013-06-21 23:10:00,
2013-06-21 18:15:00,87.1,73.4,28.79,SSW,206,0.0,0.0,64,0.00,,BKN300,0.00,VWS V14.01,2013-06-21 23:15:00,
2013-06-21 18:20:00,86.9,73.3,28.79,SE,131,0.0,2.2,64,0.00,,BKN300,0.00,VWS V14.01,2013-06-21 23:20:00,
2013-06-21 18:25:00,86.7,73.1,28.79,SSE,164,0.0,4.0,64,0.00,,BKN300,0.00,VWS V14.01,2013-06-21 23:25:00,
2013-06-21 18:30:00,86.9,73.3,28.79,SSW,194,0.0,2.2,64,0.00,,BKN300,0.00,VWS V14.01,2013-06-21 23:30:00,
2013-06-21 18:35:00,86.9,73.7,28.79,East,95,0.0,0.0,65,0.00,,BKN300,0.00,VWS V14.01,2013-06-21 23:35:00,
2013-06-21 18:41:00,86.9,73.7,28.79,SSE,160,0.0,0.0,65,0.00,,BKN300,0.00,VWS V14.01,2013-06-21 23:41:00,
2013-06-21 18:46:00,87.1,74.3,28.79,SSE,152,0.0,2.7,66,0.00,,BKN300,0.00,VWS V14.01,2013-06-21 23:46:00,
2013-06-21 18:51:00,87.1,74.3,28.79,South,171,0.0,0.0,66,0.00,,BKN300,0.00,VWS V14.01,2013-06-21 23:51:00,
2013-06-21 18:56:00,87.1,73.9,28.79,ESE,105,0.0,0.0,65,0.00,,BKN300,0.00,VWS V14.01,2013-06-21 23:56:00,
2013-06-21 19:01:00,87.1,73.9,28.79,South,179,0.0,0.0,65,0.00,,BKN300,0.00,VWS V14.01,2013-06-22 00:01:00,
2013-06-21 19:06:00,87.1,73.9,28.79,ESE,123,0.0,0.0,65,0.00,,BKN300,0.00,VWS V14.01,2013-06-22 00:06:00,
2013-06-21 19:11:00,87.1,74.3,28.79,East,84,0.0,0.0,66,0.00,,BKN300,0.00,VWS V14.01,2013-06-22 00:11:00,
2013-06-21 19:16:00,87.1,74.3,28.79,SE,133,0.0,0.0,66,0.00,,BKN300,0.00,VWS V14.01,2013-06-22 00:16:00,
2013-06-21 19:21:00,87.1,74.3,28.79,SE,142,0.0,2.2,66,0.00,,BKN300,0.00,VWS V14.01,2013-06-22 00:21:00,
2013-06-21 19:26:00,87.1,74.3,28.79,SSE,147,0.0,0.0,66,0.00,,BKN300,0.00,VWS V14.01,2013-06-22 00:26:00,
2013-06-21 19:31:00,86.9,74.2,28.79,SSE,167,0.0,0.0,66,0.00,,BKN300,0.00,VWS V14.01,2013-06-22 00:31:00,
2013-06-21 19:36:00,86.7,74.0,28.79,SE,127,0.0,0.0,66,0.00,,BKN300,0.00,VWS V14.01,2013-06-22 00:36:00,
2013-06-21 19:41:00,86.7,74.0,28.79,East,99,0.0,0.0,66,0.00,,BKN300,0.00,VWS V14.01,2013-06-22 00:41:00,
2013-06-21 19:46:00,86.5,73.8,28.79,East,99,0.0,0.0,66,0.00,,BKN300,0.00,VWS V14.01,2013-06-22 00:46:00,
2013-06-21 19:51:00,86.4,74.1,28.79,East,98,0.0,0.0,67,0.00,,BKN300,0.00,VWS V14.01,2013-06-22 00:51:00,
2013-06-21 19:56:00,86.2,74.4,28.79,East,97,0.0,0.0,68,0.00,,BKN300,0.00,VWS V14.01,2013-06-22 00:56:00,
2013-06-21 20:01:00,86.0,74.2,28.79,SE,133,0.0,0.0,68,0.00,,FEW300,0.00,VWS V14.01,2013-06-22 01:01:00,
2013-06-21 20:07:00,86.0,74.2,28.79,East,79,0.0,0.0,68,0.00,,FEW300,0.00,VWS V14.01,2013-06-22 01:07:00,
2013-06-21 20:12:00,85.8,74.0,28.79,ESE,110,0.0,0.0,68,0.00,,FEW300,0.00,VWS V14.01,2013-06-22 01:12:00,
2013-06-21 20:17:00,85.6,73.9,28.79,ESE,105,0.0,0.0,68,0.00,,FEW300,0.00,VWS V14.01,2013-06-22 01:17:00,
2013-06-21 20:22:00,85.5,73.7,28.79,SE,143,0.0,0.0,68,0.00,,FEW300,0.00,VWS V14.01,2013-06-22 01:22:00,
2013-06-21 20:27:00,85.3,73.5,28.79,East,95,0.0,0.0,68,0.00,,FEW300,0.00,VWS V14.01,2013-06-22 01:27:00,
2013-06-21 20:32:00,85.1,73.8,28.79,ESE,104,0.0,0.0,69,0.00,,FEW300,0.00,VWS V14.01,2013-06-22 01:32:00,
2013-06-21 20:37:00,84.9,73.6,28.79,SSE,156,0.0,0.0,69,0.00,,FEW300,0.00,VWS V14.01,2013-06-22 01:37:00,
2013-06-21 20:42:00,84.7,73.4,28.79,SSE,155,0.0,0.0,69,0.00,,FEW300,0.00,VWS V14.01,2013-06-22 01:42:00,
2013-06-21 20:47:00,84.4,73.5,28.79,SSE,151,0.0,0.0,70,0.00,,FEW300,0.00,VWS V14.01,2013-06-22 01:47:00,
2013-06-21 20:52:00,84.2,73.4,28.79,SE,131,0.0,0.0,70,0.00,,FEW300,0.00,VWS V14.01,2013-06-22 01:52:00,
2013-06-21 20:57:00,84.0,73.6,28.79,South,178,0.0,0.0,71,0.00,,FEW300,0.00,VWS V14.01,2013-06-22 01:57:00,
2013-06-21 21:02:00,83.8,73.4,28.79,SSE,160,0.0,0.0,71,0.00,,FEW300,0.00,VWS V14.01,2013-06-22 02:02:00,
2013-06-21 21:07:00,83.8,73.4,28.79,SSE,164,0.0,0.0,71,0.00,,FEW300,0.00,VWS V14.01,2013-06-22 02:07:00,
2013-06-21 21:12:00,83.7,73.3,28.79,South,175,0.0,0.0,71,0.00,,FEW300,0.00,VWS V14.01,2013-06-22 02:12:00,
2013-06-21 21:17:00,83.7,73.3,28.79,SSE,149,0.0,0.0,71,0.00,,FEW300,0.00,VWS V14.01,2013-06-22 02:17:00,
2013-06-21 21:23:00,83.7,73.3,28.79,SSE,168,0.0,0.0,71,0.00,,FEW300,0.00,VWS V14.01,2013-06-22 02:23:00,
2013-06-21 21:28:00,83.5,73.1,28.79,South,189,0.0,0.0,71,0.00,,FEW300,0.00,VWS V14.01,2013-06-22 02:28:00,
2013-06-21 21:33:00,83.5,73.1,28.82,South,177,0.0,0.0,71,0.00,,FEW300,0.00,VWS V14.01,2013-06-22 02:33:00,
2013-06-21 21:38:00,83.5,73.1,28.82,South,169,0.0,0.0,71,0.00,,FEW300,0.00,VWS V14.01,2013-06-22 02:38:00,
2013-06-21 21:43:00,83.3,72.9,28.82,SSE,149,0.0,0.0,71,0.00,,FEW300,0.00,VWS V14.01,2013-06-22 02:43:00,
2013-06-21 21:48:00,83.1,72.8,28.82,SSE,162,0.0,0.0,71,0.00,,FEW300,0.00,VWS V14.01,2013-06-22 02:48:00,
2013-06-21 21:53:00,82.9,72.6,28.82,SSE,162,0.0,0.0,71,0.00,,FEW300,0.00,VWS V14.01,2013-06-22 02:53:00,
2013-06-21 21:58:00,82.9,72.6,28.82,South,177,0.0,0.0,71,0.00,,FEW300,0.00,VWS V14.01,2013-06-22 02:58:00,
2013-06-21 22:03:00,82.9,72.6,28.82,SSE,166,0.0,0.0,71,0.00,,FEW300,0.00,VWS V14.01,2013-06-22 03:03:00,
2013-06-21 22:08:00,82.8,72.4,28.82,SE,143,0.0,0.0,71,0.00,,FEW300,0.00,VWS V14.01,2013-06-22 03:08:00,
2013-06-21 22:13:00,82.8,72.4,28.82,SSE,161,0.0,0.0,71,0.00,,FEW300,0.00,VWS V14.01,2013-06-22 03:13:00,
2013-06-21 22:18:00,82.6,72.2,28.82,SSE,161,0.0,0.0,71,0.00,,FEW300,0.00,VWS V14.01,2013-06-22 03:18:00,
2013-06-21 22:23:00,82.4,72.1,28.82,SSE,165,0.0,0.0,71,0.00,,FEW300,0.00,VWS V14.01,2013-06-22 03:23:00,
2013-06-21 22:28:00,82.4,72.1,28.82,SSE,165,0.0,0.0,71,0.00,,FEW300,0.00,VWS V14.01,2013-06-22 03:28:00,
2013-06-21 22:34:00,82.2,71.9,28.82,ESE,104,0.0,0.0,71,0.00,,FEW300,0.00,VWS V14.01,2013-06-22 03:34:00,
2013-06-21 22:39:00,82.2,71.9,28.82,ESE,104,0.0,0.0,71,0.00,,FEW300,0.00,VWS V14.01,2013-06-22 03:39:00,
2013-06-21 22:44:00,82.0,71.7,28.82,ESE,104,0.0,0.0,71,0.00,,FEW300,0.00,VWS V14.01,2013-06-22 03:44:00,
2013-06-21 22:49:00,81.9,71.5,28.82,SE,139,0.0,0.0,71,0.00,,FEW300,0.00,VWS V14.01,2013-06-22 03:49:00,
2013-06-21 22:54:00,81.9,71.5,28.82,East,86,0.0,0.0,71,0.00,,FEW300,0.00,VWS V14.01,2013-06-22 03:54:00,
2013-06-21 22:59:00,81.9,71.5,28.82,East,95,0.0,0.0,71,0.00,,FEW300,0.00,VWS V14.01,2013-06-22 03:59:00,
2013-06-21 23:01:00,81.7,71.4,28.82,ESE,102,0.0,0.0,71,0.00,,FEW300,0.00,VWS V14.01,2013-06-22 04:01:00,
2013-06-21 23:02:00,81.7,71.4,28.82,ESE,117,0.0,0.0,71,0.00,,FEW300,0.00,VWS V14.01,2013-06-22 04:02:00,
2013-06-21 23:07:00,81.5,71.2,28.82,ESE,103,0.0,0.0,71,0.00,,FEW300,0.00,VWS V14.01,2013-06-22 04:07:00,
2013-06-21 23:12:00,81.5,71.2,28.82,ESE,122,0.0,0.0,71,0.00,,FEW300,0.00,VWS V14.01,2013-06-22 04:12:00,
2013-06-21 23:17:00,81.5,71.2,28.82,ESE,108,0.0,0.0,71,0.00,,FEW300,0.00,VWS V14.01,2013-06-22 04:17:00,
2013-06-21 23:22:00,81.3,71.0,28.82,South,171,0.0,0.0,71,0.00,,FEW300,0.00,VWS V14.01,2013-06-22 04:22:00,
2013-06-21 23:27:00,81.3,71.0,28.82,East,92,0.0,0.0,71,0.00,,FEW300,0.00,VWS V14.01,2013-06-22 04:27:00,
2013-06-21 23:33:00,81.1,70.8,28.82,ENE,74,0.0,0.0,71,0.00,,FEW300,0.00,VWS V14.01,2013-06-22 04:33:00,
2013-06-21 23:38:00,81.1,70.8,28.82,East,88,0.0,0.0,71,0.00,,FEW300,0.00,VWS V14.01,2013-06-22 04:38:00,
2013-06-21 23:43:00,81.1,71.3,28.82,East,95,0.0,0.0,72,0.00,,FEW300,0.00,VWS V14.01,2013-06-22 04:43:00,
2013-06-21 23:48:00,81.0,71.1,28.82,ESE,118,0.0,0.0,72,0.00,,FEW300,0.00,VWS V14.01,2013-06-22 04:48:00,
2013-06-21 23:53:00,81.0,71.5,28.82,ESE,122,0.0,0.0,73,0.00,,FEW300,0.00,VWS V14.01,2013-06-22 04:53:00,
2013-06-21 23:58:00,81.0,71.5,28.82,SSE,168,0.0,0.0,73,0.00,,FEW300,0.00,VWS V14.01,2013-06-22 04:58:00,